Location: Waco, TX
(31.5480°N, 97.1670°W)
Time: 15:35:36
(UTC-05:00)

ISS - Pass Details

Date: 14 August 2019
Orbit: 410 x 421 km, 51.6° (Epoch: 22 August)

Event Time Altitude Azimuth Distance (km) Brightness Sun altitude
Rises 17:44:59 0° 326° (NW) 2,369 0.5 30.3°
Reaches altitude 10° 17:47:20 10° 340° (NNW) 1,502 -0.6 29.8°
Maximum altitude 17:50:12 25° 38° (NE) 887 -2.2 29.2°
Drops below altitude 10° 17:53:02 10° 96° (E) 1,494 -1.4 28.6°
Sets 17:55:22 0° 110° (ESE) 2,353 -0.5 28.1°
